Weather reports worldwide

Advertisment
Figari, France (7780): temperature & dewpoint: 15.05.2019 13:00:00 - 21.05.2019 13:00:00 (CEST)Figari, France (7780): temperature 5cm: 15.05.2019 13:00:00 - 21.05.2019 13:00:00 (CEST)Figari, France (7780): wind speed & gusts: 15.05.2019 13:00:00 - 21.05.2019 13:00:00 (CEST)Figari, France (7780): wind direction: 15.05.2019 13:00:00 - 21.05.2019 13:00:00 (CEST)Figari, France (7780): reduced air pressure: 15.05.2019 13:00:00 - 21.05.2019 13:00:00 (CEST)Figari, France (7780): visibility: 15.05.2019 13:00:00 - 21.05.2019 13:00:00 (CEST)Figari, France (7780): precipitation: 15.05.2019 13:00:00 - 21.05.2019 13:00:00 (CEST)
Date & Time tt [°C] td [°C] tt 5cm [°C] ff [km/h] ff [kn] fx [km/h] fx [kn] dd ppp [hPa] vv [km] rr [mm]
21.05.2019 13:00:00 21,4 13,8 29,0 31 17 57 31 SW 1014,1 19 0,0
21.05.2019 12:00:00 20,7 13,2 25,0 33 18 56 30 WSW 1013,8 36 0,0
21.05.2019 11:00:00 19,8 13,3 21,3 35 19 55 30 WSW 1013,6 20 0,0
21.05.2019 10:00:00 19,2 12,0 17,7 33 18 50 27 W 1013,4 43 0,0
21.05.2019 09:00:00 18,4 12,6 16,4 29 16 50 27 WSW 1013,0 36 0,0
21.05.2019 08:00:00 17,2 12,5 14,6 28 15 46 25 WSW 1012,7 33 0,0
21.05.2019 07:00:00 16,0 12,2 13,7 30 16 46 25 WSW 1012,1 29 0,0
21.05.2019 06:00:00 15,4 11,6 13,7 27 15 48 26 WSW 1012,0 38 0,0
21.05.2019 05:00:00 15,3 11,5 13,3 25 13 47 25 WSW 1012,0 37 0,0
21.05.2019 04:00:00 15,0 11,6 13,2 28 15 44 24 W 1012,2 31 0,0
21.05.2019 03:00:00 14,8 11,6 13,2 23 12 44 24 WSW 1012,4 28 0,0
21.05.2019 02:00:00 15,4 12,2 14,0 24 13 43 23 WSW 1012,4 25 0,0
21.05.2019 01:00:00 15,3 12,4 14,0 24 13 40 21 WSW 1012,6 22 0,0
21.05.2019 00:00:00 14,9 12,4 14,1 22 12 35 19 WSW 1012,6 22 0,2
20.05.2019 23:00:00 15,1 12,6 14,2 21 11 42 23 WSW 1012,4 11 0,0
20.05.2019 22:00:00 15,4 12,2 14,1 23 13 42 23 WSW 1012,0 21 0,0
20.05.2019 21:00:00 15,4 12,3 14,1 27 14 51 28 WSW 1011,3 20 0,0
20.05.2019 20:00:00 15,5 12,3 14,3 31 17 55 30 WSW 1010,6 21 0,0
20.05.2019 19:00:00 15,7 12,4 15,1 33 18 58 31 WSW 1010,2 20 0,0
20.05.2019 18:00:00 15,6 12,7 15,5 33 18 62 33 WSW 1009,7 6 0,2
20.05.2019 17:00:00 17,2 12,5 17,0 35 19 57 31 W 1009,3 24 0,2
20.05.2019 16:00:00 15,8 13,3 17,0 31 17 57 31 W 1009,3 8 0,4
20.05.2019 15:00:00 18,3 12,3 18,7 30 16 48 26 W 1008,8 19 0,0
20.05.2019 14:00:00 16,8 12,7 18,6 26 14 41 22 WSW 1008,8 30 0,0
20.05.2019 13:00:00 16,0 14,0 16,5 27 15 40 22 WSW 1008,6 10 0,6
20.05.2019 12:00:00 17,1 11,8 19,1 25 13 48 26 SW 1008,6 20 0,0
20.05.2019 11:00:00 16,6 12,5 15,7 25 13 41 22 SSW 1008,4 45 0,0
20.05.2019 10:00:00 14,7 11,7 15,7 23 12 40 22 SW 1008,6 10 0,2
20.05.2019 09:00:00 16,6 10,4 14,8 22 12 36 20 W 1008,1 58 0,0
20.05.2019 08:00:00 15,6 10,1 10,3 16 9 28 15 WSW 1008,1 33 0,0
20.05.2019 07:00:00 13,0 8,7 8,7 11 6 22 12 WSW 1007,7 41 0,0
20.05.2019 06:00:00 11,9 7,8 8,6 18 10 24 13 SW 1007,4 60 0,0
20.05.2019 05:00:00 12,8 7,7 9,4 16 8 32 17 WSW 1007,3 60 0,0
20.05.2019 04:00:00 12,2 8,3 9,2 18 10 29 15 WSW 1007,6 60 0,0
20.05.2019 03:00:00 12,4 8,7 9,1 18 10 27 14 SW 1008,1 60 0,0
20.05.2019 02:00:00 12,6 8,9 8,9 14 8 22 12 WSW 1008,4 57 0,0
20.05.2019 01:00:00 12,2 9,0 9,3 13 7 23 13 WSW 1008,6 54 0,0
20.05.2019 00:00:00 12,8 9,6 9,8 18 10 27 14 SW 1008,9 49 0,0
19.05.2019 23:00:00 13,1 9,7 10,8 17 9 31 17 SW 1009,0 47 0,0
19.05.2019 22:00:00 13,4 9,8 11,2 18 10 30 16 WSW 1008,7 47 0,0
19.05.2019 21:00:00 14,1 9,9 12,5 19 10 37 20 WSW 1008,3 49 0,0
19.05.2019 20:00:00 15,0 10,2 13,7 26 14 44 24 WSW 1008,1 53 0,0
19.05.2019 19:00:00 16,0 10,5 15,0 29 15 51 27 WSW 1007,8 41 0,0
19.05.2019 18:00:00 17,6 10,7 17,2 34 19 51 28 WSW 1007,5 20 0,0
19.05.2019 17:00:00 18,0 10,8 17,2 32 18 56 30 W 1007,0 38 0,0
19.05.2019 16:00:00 18,1 11,2 17,7 34 18 61 33 W 1006,8 38 0,0
19.05.2019 15:00:00 17,9 11,9 19,3 36 19 63 34 WSW 1006,8 44 0,0
19.05.2019 14:00:00 18,0 12,7 18,2 36 19 55 30 WSW 1006,8 50 0,0
19.05.2019 13:00:00 16,8 12,7 16,1 34 18 52 28 WSW 1006,9 60 0,0
19.05.2019 12:00:00 14,0 11,7 15,9 28 15 52 28 SW 1007,0 41 1,4
19.05.2019 11:00:00 17,7 11,0 19,4 36 19 54 29 SW 1006,3 38 0,0
19.05.2019 10:00:00 18,0 9,9 17,3 28 15 48 26 WSW 1006,1 20 0,0
19.05.2019 09:00:00 16,9 10,0 14,7 30 16 50 27 W 1005,9 45 0,0
19.05.2019 08:00:00 15,9 9,8 12,7 27 15 42 23 W 1005,9 34 0,0
19.05.2019 07:00:00 14,2 10,2 12,3 22 12 35 19 W 1006,0 52 0,0
19.05.2019 06:00:00 13,6 10,2 12,1 19 10 35 19 WSW 1005,8 52 0,0
19.05.2019 05:00:00 13,9 10,1 12,2 18 10 37 20 WSW 1005,8 53 0,0
19.05.2019 04:00:00 14,3 9,9 12,2 21 11 47 25 WSW 1006,0 57 0,0
19.05.2019 03:00:00 14,0 9,8 12,4 23 12 42 23 W 1006,1 60 0,0
19.05.2019 02:00:00 14,5 10,1 12,9 19 10 34 18 W 1006,8 43 0,0
19.05.2019 01:00:00 14,5 10,5 13,2 23 12 39 21 WSW 1007,6 49 0,0
19.05.2019 00:00:00 14,6 11,0 12,5 21 11 35 19 WSW 1007,8 60 0,0
18.05.2019 23:00:00 14,9 9,7 12,2 16 9 34 18 W 1007,5 60 0,0
18.05.2019 22:00:00 14,4 10,6 12,5 15 8 27 14 WSW 1007,1 60 0,0
18.05.2019 21:00:00 15,0 11,0 13,0 17 9 36 19 SW 1006,5 57 0,0
18.05.2019 20:00:00 16,1 10,4 14,4 16 9 37 20 W 1005,6 60 0,0
18.05.2019 19:00:00 17,3 11,3 16,6 19 10 43 23 W 1005,1 56 0,0
18.05.2019 18:00:00 17,6 12,3 17,4 24 13 44 24 WSW 1004,6 50 0,0
18.05.2019 17:00:00 17,6 12,9 18,1 28 15 51 27 W 1004,4 45 0,0
18.05.2019 16:00:00 19,2 12,9 20,4 34 18 52 28 WSW 1003,8 25 0,0
18.05.2019 15:00:00 19,9 13,4 18,8 30 16 50 27 WSW 1003,9 25 0,0
18.05.2019 14:00:00 18,1 13,4 18,2 33 18 47 26 WSW 1003,6 24 0,0
18.05.2019 13:00:00 19,2 14,5 17,2 31 17 47 25 SW 1003,2 19 0,0
18.05.2019 12:00:00 17,4 13,7 17,5 23 12 38 21 WSW 1003,0 43 0,0
18.05.2019 11:00:00 16,5 14,1 16,5 26 14 40 22 WSW 1002,7 20 0,2
18.05.2019 10:00:00 16,6 13,9 16,3 13 7 24 13 WSW 1002,0 14 0,0
18.05.2019 09:00:00 15,5 14,0 15,4 16 9 27 15 SSW 1001,8 20 0,0
18.05.2019 08:00:00 14,5 13,7 10,9 8 5 14 8 WSW 1001,3 19 0,2
18.05.2019 07:00:00 11,6 10,8 8,0 4 2 7 4 NE 1001,0 10 0,0
18.05.2019 06:00:00 9,8 9,0 7,6 3 2 6 3 SSE 1000,9 9 0,0
18.05.2019 05:00:00 10,1 9,2 8,3 0 0 9 5 N 1001,0 7 0,0
18.05.2019 04:00:00 11,1 10,2 8,2 5 3 8 4 NE 1001,4 12 0,0
18.05.2019 03:00:00 11,3 10,4 7,3 4 2 6 3 NNE 1001,9 13 0,0
18.05.2019 02:00:00 11,4 10,0 8,9 3 1 9 5 N 1002,3 8 0,0
18.05.2019 01:00:00 12,8 11,2 12,0 4 2 23 13 NE 1002,8 44 1,2
18.05.2019 00:00:00 13,3 10,7 13,4 21 11 42 23 WNW 1003,0 0,6 -
17.05.2019 23:00:00 14,8 13,0 13,9 12 7 32 18 NE 1002,9 16 0,0
17.05.2019 22:00:00 15,0 13,2 14,0 16 9 32 18 NE 1003,0 19 0,0
17.05.2019 21:00:00 14,5 13,2 13,7 14 7 31 17 NE 1003,5 23 1,0
17.05.2019 20:00:00 14,2 12,8 13,6 21 11 37 20 ENE 1003,4 2,8 4,0
17.05.2019 19:00:00 15,0 11,9 13,8 23 12 48 26 ENE 1003,8 43 0,0
17.05.2019 18:00:00 15,6 11,2 15,1 24 13 53 29 ENE 1004,8 54 0,0
17.05.2019 17:00:00 15,9 10,6 15,9 26 14 56 31 ENE 1005,5 57 0,0
17.05.2019 16:00:00 16,5 10,1 17,0 29 15 56 30 ENE 1005,9 41 0,0
17.05.2019 15:00:00 17,1 9,5 18,2 31 17 58 31 ENE 1006,3 48 0,0
17.05.2019 14:00:00 16,8 9,9 17,1 33 18 63 34 ENE 1006,4 47 0,0
17.05.2019 13:00:00 16,4 8,9 16,6 29 16 54 29 ENE 1007,4 52 0,0
17.05.2019 12:00:00 16,7 8,6 18,2 29 15 53 28 ENE 1007,6 59 0,0
17.05.2019 11:00:00 17,2 8,9 20,1 27 15 55 30 ENE 1007,7 60 0,0
17.05.2019 10:00:00 17,8 8,9 17,1 24 13 52 28 E 1008,0 60 0,0
17.05.2019 09:00:00 17,0 8,7 13,8 25 13 43 23 ENE 1008,2 60 0,0
17.05.2019 08:00:00 14,9 7,9 10,4 22 12 38 20 ENE 1008,6 45 0,0
17.05.2019 07:00:00 13,1 7,1 9,0 19 10 31 17 ENE 1008,9 38 0,0
17.05.2019 06:00:00 10,9 7,0 8,9 14 7 24 13 ENE 1008,8 60 0,0
17.05.2019 05:00:00 10,2 7,6 8,5 11 6 22 12 ENE 1009,1 59 0,0
17.05.2019 04:00:00 10,0 7,8 8,8 11 6 16 8 ENE 1009,7 58 0,0
17.05.2019 03:00:00 11,4 8,3 7,9 10 6 19 11 E 1010,1 52 0,0
17.05.2019 02:00:00 9,9 8,0 6,5 7 4 10 5 ENE 1010,7 48 0,0
17.05.2019 01:00:00 9,7 8,0 5,4 6 4 10 6 E 1011,3 48 0,0
17.05.2019 00:00:00 9,0 7,4 6,2 3 1 8 4 NE 1011,5 52 0,0
16.05.2019 23:00:00 10,4 8,0 7,1 6 4 11 6 N 1012,0 52 0,0
16.05.2019 22:00:00 10,8 8,4 8,9 9 5 12 6 NE 1011,7 56 0,0
16.05.2019 21:00:00 13,2 8,9 10,4 8 4 26 14 NW 1011,4 60 0,0
16.05.2019 20:00:00 15,9 9,1 13,6 18 10 37 20 SW 1010,9 34 0,0
16.05.2019 19:00:00 17,4 9,0 15,9 26 14 45 24 SW 1010,6 37 0,0
16.05.2019 18:00:00 18,0 8,8 18,7 29 15 45 25 WSW 1010,8 32 0,0
16.05.2019 17:00:00 19,3 8,0 23,4 29 16 41 22 WSW 1011,3 34 0,0
16.05.2019 16:00:00 20,1 7,8 27,6 24 13 42 23 W 1011,5 20 0,0
16.05.2019 15:00:00 19,6 8,0 30,8 29 16 42 23 WSW 1011,9 49 0,0
16.05.2019 14:00:00 18,9 7,0 32,4 17 9 33 18 WSW 1012,3 54 0,0
16.05.2019 13:00:00 17,7 6,8 24,8 15 8 30 16 SSW 1012,8 60 0,0
16.05.2019 12:00:00 17,3 5,2 20,1 21 11 33 18 SW 1013,0 60 0,0
16.05.2019 11:00:00 17,9 5,8 16,4 13 7 26 14 SSW 1012,8 60 0,0
16.05.2019 10:00:00 16,8 6,0 14,6 13 7 23 12 SSW 1012,7 60 0,0
16.05.2019 09:00:00 15,2 7,5 10,7 10 6 21 12 SSW 1012,9 60 0,2
16.05.2019 08:00:00 10,5 7,6 4,6 4 2 7 4 WSW 1012,6 43 0,0
16.05.2019 07:00:00 7,1 5,9 2,9 3 2 11 6 N 1012,1 54 0,0
16.05.2019 06:00:00 6,2 5,2 3,4 7 4 16 9 NNE 1011,6 40 0,0
16.05.2019 05:00:00 7,2 6,0 5,2 5 3 19 10 NE 1011,8 34 0,0
16.05.2019 04:00:00 8,6 7,4 7,2 6 3 12 6 SE 1011,7 37 0,0
16.05.2019 03:00:00 9,1 7,9 8,8 3 1 8 4 WNW 1011,7 35 0,0
16.05.2019 02:00:00 9,0 7,9 8,8 5 3 10 5 NE 1011,9 26 0,0
16.05.2019 01:00:00 8,9 7,7 8,6 3 1 14 7 WNW 1012,0 40 0,0
16.05.2019 00:00:00 8,6 7,4 7,8 3 2 8 4 W 1012,3 44 0,0
15.05.2019 23:00:00 8,5 7,1 7,4 2 1 8 5 S 1012,2 53 0,0
15.05.2019 22:00:00 8,4 6,9 6,5 3 1 9 5 NE 1012,2 51 0,0
15.05.2019 21:00:00 8,8 7,1 7,3 5 3 8 4 ENE 1011,5 39 0,0
15.05.2019 20:00:00 10,6 7,5 9,3 3 2 13 7 E 1011,4 47 0,0
15.05.2019 19:00:00 9,6 6,9 9,3 11 6 38 20 ENE 1011,5 24 0,0
15.05.2019 18:00:00 11,8 5,6 9,8 6 4 35 19 ENE 1010,9 18 0,0
15.05.2019 17:00:00 12,4 5,5 10,3 18 10 38 20 E 1010,7 18 0,0
15.05.2019 16:00:00 13,1 6,2 12,1 23 12 44 24 ENE 1010,8 42 0,0
15.05.2019 15:00:00 10,1 7,5 8,4 24 13 48 26 ENE 1011,1 47 0,2
15.05.2019 14:00:00 8,7 6,7 8,3 23 13 41 22 ENE 1011,4 7 0,2
15.05.2019 13:00:00 8,2 6,2 7,6 13 7 39 21 ENE 1012,1 14 0,5

tt = temperature
td = dewpoint
tt 5cm = temperature 5cm
ff = wind speed
fx = gusts
dd = wind direction
ppp = reduced air pressure
vv = visibility
rr = precipitation

Next stations